Location: Newark
(46.7000°N, 60.6000°W)
Time: 04:09:26
(UTC+00:00)

Transit 2A Rocket - Pass Details

Date: 03 November 2020
Orbit: 588 x 914 km, 66.7° (Epoch: 29 November)

Event Time Altitude Azimuth Distance (km) Brightness Sun altitude
Rises 13:14:06 0° 234° (SW) 3,538 8.4 19.2°
Reaches altitude 10° 13:16:47 10° 241° (WSW) 2,590 7.7 19.5°
Maximum altitude 13:22:33 44° 312° (NW) 1,215 5.9 20.1°
Drops below altitude 10° 13:28:03 10° 24° (NNE) 2,477 7.4 20.7°
Sets 13:30:35 0° 31° (NNE) 3,368 8.1 20.9°
